This demonstration page uses our WeatherBlox Daily Observations layout. Learn more.

Left ArrowRight Arrow

41.55636, -103.73856

Hourly Observations for May 15, 2020

Temp ( °F °C ) Dew Point ( °F °C ) Humidity (%) Winds ( mph kmh ) Pressure ( in mb ) Visibility ( mi km ) Precip ( " mm )
12:58 am 00:58 Mostly Cloudy 65 18.2 35 1.9 34 34 SE 8 13 29.83 1010 10 16 N/A
1:58 am 01:58 Mostly Cloudy 63 17.1 31 -0.4 31 31 W 15 24 29.85 1011 10 16 N/A
2:58 am 02:58 Mostly Cloudy 62 16.6 33 0.5 34 34 W 14 22 29.88 1012 10 16 N/A
3:58 am 03:58 Mostly Cloudy 56 13.3 43 6.3 63 63 N N/A 29.90 1013 10 16 N/A
4:58 am 04:58 Cloudy 53 11.9 45 7.1 73 73 NE 9 15 29.90 1013 10 16 N/A
5:58 am 05:58 Mostly Cloudy 51 10.7 45 7 78 78 SSW 5 7 29.92 1013 10 16 N/A
6:58 am 06:58 Cloudy with Light Rain 51 10.7 46 8 84 84 N N/A 29.93 1014 10 16 0.01 0.25
7:58 am 07:58 Mostly Cloudy 51 10.7 47 8.3 85 85 W 3 6 29.91 1013 10 16 0.02 0.51
8:58 am 08:58 Mostly Cloudy with Light Showers 50 9.8 47 8.1 89 89 SW 7 11 29.94 1014 10 16 0.02 0.51
9:58 am 09:58 Mostly Cloudy 49 9.5 45 7.3 86 86 SSW 13 20 29.90 1013 10 16 0.01 0.25
10:58 am 10:58 Mostly Cloudy 49 9.3 45 7 86 86 SSW 9 15 29.91 1013 10 16 N/A
11:58 am 11:58 Mostly Cloudy 49 9.3 45 7.1 86 86 SW 13 20 29.91 1013 10 16 N/A
12:58 pm 12:58 Mostly Cloudy 51 10.7 44 6.8 77 77 WSW 7 11 29.92 1013 10 16 N/A
1:58 pm 13:58 Partly Cloudy 55 12.6 45 7.1 69 69 SSW 5 7 29.93 1014 10 16 N/A
2:58 pm 14:58 Mostly Sunny 58 14.7 47 8.6 67 67 SW 15 24 29.93 1013 10 16 N/A
3:58 pm 15:58 Mostly Sunny 60 15.5 48 8.9 65 65 SW 15 24 29.93 1014 10 16 N/A
4:58 pm 16:58 Mostly Cloudy 62 16.9 46 7.8 55 55 SW 18 30 29.93 1014 10 16 N/A
5:58 pm 17:58 Mostly Sunny 67 19.3 46 7.8 47 47 SSW 24 39 29.90 1013 10 16 N/A
6:58 pm 18:58 Mostly Sunny 67 19.4 46 7.5 46 46 SW 21 33 29.89 1012 10 16 N/A
7:58 pm 19:58 Mostly Sunny 67 19.6 45 7.3 45 45 SW 20 31 29.87 1012 10 16 N/A
8:58 pm 20:58 Mostly Cloudy 65 18.6 44 6.6 46 46 SW 16 26 29.87 1012 10 16 N/A
9:58 pm 21:58 Mostly Cloudy with Light Rain 64 17.5 47 8.3 55 55 WSW 10 17 29.87 1012 10 16 N/A
10:58 pm 22:58 Mostly Cloudy with Showers 52 11.1 49 9.4 89 89 WNW 17 28 29.95 1014 8 13 0.02 0.51
11:58 pm 23:58 Cloudy with Light Showers 53 11.4 48 9.1 86 86 NW 8 13 29.91 1013 10 16 0.04 1.02

Powered by AerisWeather